Location: Breux
(46.3269°N, 3.2993°E)
Time: 19:20:53
(UTC+00:00)

X-37B - Visible Passes

Search period start: 22 June 2021 00:00
Search period end: 02 July 2021 00:00
Orbit: 386 x 389 km, 45.0° (Epoch: 10 June)

Date Brightness Start Highest point End Pass type
(mag) Time Alt. Az. Time Alt. Az. Time Alt. Az.
22 Jun 0.8 01:43:03 41° SW 01:43:25 44° SSW 01:46:27 10° ESE visible
22 Jun 1.9 21:29:29 10° SW 21:31:22 23° S 21:31:22 23° S visible
23 Jun 2.1 02:22:08 19° S 02:22:08 19° S 02:23:50 10° SSE visible
23 Jun 2.2 20:31:50 10° SSW 20:34:02 17° SSE 20:36:14 10° ESE visible
23 Jun 0.6 22:07:09 10° WSW 22:10:08 52° S 22:10:08 52° S visible
24 Jun 1.1 21:08:59 10° SW 21:11:58 38° SSE 21:14:58 10° E visible
24 Jun 1.3 22:45:16 10° W 22:47:29 41° WSW 22:47:29 41° WSW visible
25 Jun 0.5 21:46:56 10° WSW 21:50:06 65° S 21:51:53 23° E visible
25 Jun 3.0 23:23:30 10° W 23:24:10 15° W 23:24:10 15° W visible
26 Jun 0.7 20:48:40 10° WSW 20:51:47 53° SSE 20:54:54 10° E visible
26 Jun 0.4 22:25:09 10° W 22:28:17 68° S 22:28:17 68° S visible
27 Jun 0.5 21:26:48 10° W 21:29:58 71° S 21:32:17 17° E visible
27 Jun 2.6 23:03:25 10° W 23:04:33 19° W 23:04:33 19° W visible
28 Jun 0.6 20:28:28 10° WSW 20:31:38 65° S 20:34:47 10° E visible
28 Jun 0.6 22:05:01 10° W 22:08:11 57° S 22:08:29 53° SSE visible
29 Jun 0.5 21:06:40 10° W 21:09:50 68° S 21:12:24 15° ESE visible
29 Jun 2.6 22:43:24 10° W 22:44:39 19° WSW 22:44:39 19° WSW visible
30 Jun 1.0 21:44:57 10° W 21:48:00 43° SSW 21:48:33 38° SSE visible
01 Jul 0.7 20:46:33 10° W 20:49:41 57° SSW 20:52:27 13° ESE visible
01 Jul 2.8 22:23:32 10° WSW 22:24:43 16° WSW 22:24:43 16° WSW visible
